SCP
0 0 0 0 0 0 0 0 0 0 0 0 0 0 0 0 0 0 0 0 0 0 0 0 0 0 0 0 0 0 0 0 0 0 0 0 0 0 0 0 0 0 0
0 0 0 0 0 0 0 0 0 0 0 0 0 0 0 0 0 0 0 0 0 0 0 0 0 0 0 0 0 0 0 0 0 0 0 0 0 0 0 0 0 0 0
0 0 0 0 0 0 0 0 0 0 0 0 0 0 0 0 0 0 0 0 0 0 0 0 0 0 0 0 0 0 0 0 0 0 0 0 0 0 0 0 0 0 0
0 0 0 0 0 0 0 0 0 0 0 0 0 0 0 0 0 0 0 0 0 0 0 0 0 0 0 0 0 0 0 0 0 0 0 0 0 0 0 0 0 0 0
0 0 0 0 0 0 0 0 0 0 0 0 0 0 0 0 0 0 0 0 0 0 0 0 0 0 0 0 0 0 0 0 0 0 0 0 0 0 0 0 0 0 0
0 0 0 0 0 0 0 0 0 0 0 0 0 0 0 0 0 0 0 0 0 0 0 0 0 0 0 0 0 0 0 0 0 0 0 0 0 0 0 0 0 0 0
0 0 0 0 0 0 0 0 0 0 0 0 0 0 0 0 0 0 0 0 0 0 0 0 0 0 0 0 0 0 0 0 0 0 0 0 0 0 0 0 0 0 0
0 0 0 0 0 0 0 0 0 0 0 0 0 0 0 0 0 0 0 0 0 0 0 0 0 0 0 0 0 0 0 0 0 0 0 0 0 0 0 0 0 0 0
0 0 0 0 0 0 0 0 0 0 0 0 0 0 0 0 0 0 0 0 0 0 0 0 0 0 0 0 0 0 0 0 0 0 0 0 0 0 0 0 0 0 0
0 0 0 0 0 0 0 0 0 0 0 0 0 0 0 0 0 0 0 0 0 0 0 0 0 0 0 0 0 0 0 0 0 0 0 0 0 0 0 0 0 0 0
0 0 0 0 0 0 0 0 0 0 0 0 0 0 0 0 0 0 0 0 0 0 0 0 0 0 0 0 0 0 0 0 0 0 0 0 0 0 0 0 0 0 0
0 0 0 0 0 0 0 0 0 0 0 0 0 0 0 0 0 0 0 0 0 0 0 0 0 0 0 0 0 0 0 0 0 0 0 0 0 0 0 0 0 0 0
0 0 0 0 0 0 0 0 0 0 0 0 0 0 0 0 0 0 0 0 0 0 0 0 0 0 0 0 0 0 0 0 0 0 0 0 0 0 0 0 0 0 0
0 0 0 0 0 0 0 0 0 0 0 0 0 0 0 0 0 0 0 0 0 0 0 0 0 0 0 0 0 0 0 0 0 0 0 0 0 0 0 0 0 0 0
0 0 0 0 0 0 0 0 0 0 0 0 0 0 0 0 0 0 0 0 0 0 0 0 0 0 0 0 0 0 0 0 0 0 0 0 0 0 0 0 0 0 0
0 0 0 0 0 0 0 0 0 0 0 0 0 0 0 0 0 0 0 0 0 0 0 0 0 0 0 0 0 0 0 0 0 0 0 0 0 0 0 0 0 0 0
0 0 0 0 0 0 0 0 0 0 0 0 0 0 0 0 0 0 0 0 0 0 0 0 0 0 0 0 0 0 0 0 0 0 0 0 0 0 0 0 0 0 0
0 0 0 0 0 0 0 0 0 0 0 0 0 0 0 0 0 0 0 0 0 0 0 0 0 0 0 0 0 0 0 0 0 0 0 0 0 0 0 0 0 0 0
0 0 0 0 0 0 0 0 0 0 0 0 0 0 0 0 0 0 0 0 0 0 0 0 0 0 0 0 0 0 0 0 0 0 0 0 0 0 0 0 0 0 0
-0 -0 0 0 0 0 0 0 0 0 0 0 0 0 0 0 0 0 0 0 0 0 0 0 0 0 0 0 0 0 0 0 0 0 0 0 0 0 0 0 0 0 0
-0 -0 -0 0 0 0 0 0 0 0 0 0 0 0 0 0 0 0 0 0 0 0 0 0 0 0 0 0 0 0 0 0 0 0 0 0 0 0 0 0 0 0 0
-0 0 0 0 0 0 0 0 0 0 0 0 0 0 0 0 0 0 0 0 0 0 0 0 0 0 0 0 0 0 0 0 0 0 0 0 0 0 0 0 0 0 0
0 0 0 0 0 0 0 0 0 0 0 0 0 0 0 0 0 0 0 0 0 0 0 0 0 0 0 0 0 0 0 0 0 0 0 0 0 0 0 0 0 0 0
0 0 0 0 0 0 0 0 0 0 0 0 0 0 0 0 0 0 0 0 0 0 0 0 0 0 0 0 0 0 0 0 0 0 0 0 0 0 0 0 0 0 0
0 0 0 0 0 0 0 0 0 0 0 0 0 0 0 0 0 0 0 0 0 0 0 0 0 0 0 0 0 0 0 0 0 0 0 0 0 0 0 0 0 0 0
0 0 0 0 0 0 0 0 0 0 0 0 0 0 0 0 0 0 0 0 0 0 0 0 0 0 0 0 0 0 0 0 0 0 0 0 0 0 0 0 0 0 0
Wind_Speed
14 10 13 13 12 13 15 16 17 14 11 7 7 6 6 5 5 6 8 8 8 8 7 5 5 5 5 5 5 3 4 4 3 4 5 7 8 8 6 5 5 7 8
9 10 12 14 17 17 17 17 18 17 15 12 8 5 4 4 5 5 7 9 9 9 8 7 6 6 5 5 5 5 3 3 2 2 4 5 4 3 7 6 6 7 6
15 11 12 15 16 18 21 19 20 19 17 13 7 4 3 2 4 6 7 9 10 9 8 8 7 6 6 6 6 6 5 4 3 3 2 3 5 7 5 6 7 7 6
13 11 12 13 18 21 17 17 18 18 16 16 14 13 12 11 11 7 7 8 9 9 9 8 8 7 6 6 7 6 5 5 4 3 5 6 5 5 8 5 4 7 8
13 13 14 16 17 15 14 16 15 17 17 18 19 18 14 9 5 5 8 8 8 9 9 9 8 7 7 7 7 6 6 5 5 5 4 5 6 7 8 13 11 7 6
10 12 11 9 10 10 12 14 16 18 18 19 19 20 18 12 9 9 9 8 6 7 9 9 8 8 7 8 8 7 7 7 7 6 5 5 6 6 7 10 15 16 9
8 9 10 11 12 13 15 15 17 19 18 19 20 20 19 16 16 14 13 10 8 8 10 10 8 8 8 8 7 7 8 8 8 8 7 7 9 8 9 11 15 18 15
8 9 10 10 11 12 13 15 18 19 18 20 20 18 16 13 12 13 11 12 10 10 9 11 9 9 9 8 7 7 8 7 8 10 9 8 9 8 10 11 13 17 18
9 9 8 8 9 10 13 16 17 17 17 19 17 16 16 15 14 12 12 9 9 8 10 10 10 9 9 9 8 7 8 7 8 9 10 9 9 9 9 10 11 13 18
9 9 8 8 8 9 9 10 14 16 15 15 16 15 16 16 14 12 13 12 11 10 10 11 10 10 9 9 8 8 8 9 9 8 10 11 10 9 10 11 11 12 15
11 11 9 7 7 8 9 11 12 13 13 15 15 15 15 15 14 14 15 13 12 12 12 11 11 10 10 9 9 9 8 10 10 10 11 13 12 11 11 11 11 12 13
12 11 10 8 6 7 7 9 11 13 14 12 13 15 13 13 15 16 15 13 13 13 13 11 11 11 10 9 10 10 10 10 11 12 12 14 12 13 12 11 13 12 13
12 10 8 7 7 6 7 8 10 11 10 10 13 14 15 16 18 17 15 14 14 13 12 12 11 11 10 9 10 10 10 11 12 12 13 14 13 14 12 13 13 12 13
10 9 9 8 6 6 6 8 9 9 9 11 13 16 18 18 17 16 15 16 15 14 13 12 11 10 9 10 10 9 10 11 12 13 13 14 14 14 14 13 14 13 14
11 10 9 8 7 5 6 7 9 9 10 12 15 18 16 15 14 15 15 14 14 14 12 11 11 10 8 9 9 10 11 12 13 13 13 13 16 19 17 14 12 11 12
11 10 10 9 8 7 7 7 9 9 11 14 16 14 13 14 15 15 14 13 13 12 11 12 11 10 9 14 19 15 11 11 12 12 10 11 13 17 23 26 26 23 17
10 10 10 9 9 8 7 8 8 8 11 14 14 13 13 14 14 14 14 14 14 12 12 12 11 11 13 18 20 21 12 9 8 9 8 9 10 16 10 19 25 23 24
9 10 9 9 9 7 6 6 6 7 10 12 13 12 13 14 12 13 14 14 12 12 12 12 12 11 12 18 19 19 12 7 7 8 9 10 10 11 15 14 14 10 10
9 9 9 9 9 9 7 6 6 7 9 12 13 12 12 13 13 15 15 13 12 12 12 11 12 11 12 17 18 17 6 7 8 8 9 10 10 18 24 16 11 9 10
9 9 8 8 9 9 6 6 8 8 12 13 12 11 12 14 16 16 14 11 11 12 12 11 11 11 11 14 17 16 6 7 7 7 8 13 15 20 23 13 8 10 12
11 10 9 8 9 8 6 8 9 11 12 10 9 9 11 13 13 11 10 10 11 11 11 11 10 10 12 13 17 17 6 6 7 7 5 6 16 20 21 18 8 15 16
10 9 9 10 10 8 6 9 12 11 9 8 9 10 10 10 10 10 10 10 11 11 11 9 9 8 9 12 14 17 15 12 8 6 5 7 17 19 19 14 16 22 17
10 9 9 10 11 8 6 10 12 10 8 8 9 8 8 9 9 10 11 10 10 10 10 9 9 8 7 9 17 17 15 14 7 5 10 13 16 16 11 14 19 15 8
9 8 9 11 12 11 9 10 11 9 9 10 9 7 7 8 9 9 10 10 11 11 10 10 9 7 6 7 6 5 6 9 8 5 8 12 13 11 12 11 9 7 8
8 8 9 11 13 12 12 11 10 9 9 9 8 6 7 7 8 10 10 12 12 13 13 11 9 9 8 11 14 9 7 6 6 4 2 1 3 4 5 5 6 6 7
10 10 11 12 13 12 13 12 9 8 8 9 7 5 5 6 7 8 8 18 17 21 23 17 12 10 11 12 16 15 13 11 9 4 1 2 3 5 6 7 7 7 7
Wind_Direction
238 209 205 202 198 198 200 201 200 196 182 176 181 184 202 200 200 202 198 193 192 189 186 195 199 199 207 219 221 232 258 259 248 270 279 267 254 248 249 249 258 268 273
236 211 200 198 201 203 203 203 203 198 194 195 180 172 171 188 198 197 199 197 194 192 194 194 199 201 208 219 222 213 234 256 255 267 306 312 297 255 247 244 256 263 267
235 220 203 204 204 207 206 205 204 201 198 188 164 143 131 144 177 197 202 200 195 193 194 193 196 201 202 215 219 210 215 242 250 205 228 288 294 307 260 236 248 254 259
232 225 207 206 209 213 207 205 202 201 196 186 187 186 193 199 198 190 191 190 193 193 195 196 197 202 205 214 222 217 210 219 247 233 218 221 237 285 301 277 245 247 261
224 225 217 214 214 210 202 202 200 201 196 194 198 200 207 204 173 173 182 190 194 197 197 198 198 204 209 214 219 222 218 216 231 232 228 237 243 235 262 290 293 275 249
230 231 227 215 213 200 197 196 199 204 199 198 202 205 207 192 177 185 189 194 195 200 202 202 202 206 210 216 220 222 224 227 232 239 234 233 239 246 248 272 290 293 282
249 240 229 217 214 202 200 197 200 206 201 200 205 209 209 199 198 193 195 192 194 202 206 203 203 207 213 218 219 221 228 228 232 237 241 242 244 249 255 267 281 288 289
265 251 239 225 219 209 201 198 203 207 201 203 208 209 206 203 205 200 194 196 200 202 194 199 204 208 211 220 218 224 230 230 234 244 243 247 251 249 251 258 275 287 291
286 271 263 243 227 213 206 204 205 207 204 205 206 207 206 206 205 199 197 197 197 194 194 196 202 209 214 218 219 230 233 234 239 245 248 249 255 252 252 254 256 270 288
296 284 269 251 234 221 211 203 207 211 208 204 205 207 207 208 204 196 199 199 197 193 189 196 203 209 214 218 222 232 235 238 245 246 250 253 255 256 255 256 256 254 264
291 284 275 259 236 217 203 203 207 209 208 207 206 209 206 205 203 204 204 200 196 194 198 199 203 210 215 218 223 233 235 241 251 252 253 257 258 261 261 260 259 259 260
284 283 282 276 253 231 214 210 209 212 213 206 205 211 208 202 205 209 206 199 197 197 199 199 204 211 216 218 223 236 242 242 251 256 257 261 263 263 264 263 264 264 262
299 301 298 286 267 244 223 217 217 219 212 203 207 210 210 208 210 210 204 199 198 197 197 198 205 211 215 220 226 234 242 245 250 254 257 261 263 266 265 265 267 267 266
305 308 307 299 282 254 229 223 225 218 210 207 212 216 216 214 213 210 204 201 198 196 196 199 205 209 214 223 230 234 242 248 252 254 255 258 259 263 266 268 266 266 266
319 319 314 308 301 277 245 230 228 216 209 212 218 223 220 216 214 210 206 201 198 197 194 196 203 208 213 222 227 235 242 246 253 256 255 256 261 265 275 280 277 271 270
320 318 315 311 304 286 262 242 233 219 209 218 226 225 218 215 214 211 205 200 198 193 188 195 200 209 218 235 244 247 239 242 249 258 260 258 270 278 284 290 293 291 288
310 309 308 303 298 291 272 255 242 219 214 225 231 225 219 219 215 209 205 202 196 189 190 196 201 214 226 238 250 259 260 251 250 254 262 269 270 286 282 286 289 289 289
309 306 303 302 299 292 283 268 249 224 224 231 233 226 218 220 214 209 209 204 195 190 192 197 203 214 229 237 249 259 263 258 252 250 254 264 270 274 282 278 280 271 272
293 289 287 287 290 293 290 279 262 242 237 239 237 227 217 216 212 212 209 200 192 191 194 196 199 210 228 236 246 257 253 258 256 253 257 264 267 282 294 298 294 288 284
294 293 295 297 297 299 302 284 273 257 250 248 244 230 216 215 216 215 208 198 193 194 192 197 200 208 219 230 241 251 246 256 263 261 258 273 284 293 301 304 301 299 296
299 300 302 301 297 303 305 287 280 269 265 259 248 233 221 219 219 213 202 193 193 190 192 197 200 206 216 228 239 246 237 243 261 269 264 266 292 299 306 313 306 298 310
306 308 309 305 302 303 294 285 282 279 275 262 250 238 223 216 212 206 200 191 190 190 192 195 201 209 218 225 234 242 246 250 251 262 265 274 294 305 313 316 307 314 325
304 306 305 304 305 304 294 287 290 292 284 269 256 244 225 212 203 200 197 190 191 194 194 194 202 207 204 219 230 235 244 256 258 255 275 292 304 313 315 308 313 324 319
305 308 311 309 308 308 301 285 289 291 283 274 266 245 223 214 204 201 198 197 197 198 196 195 200 201 199 199 209 221 242 254 265 275 285 298 308 309 305 309 315 310 303
303 305 304 302 301 304 302 298 295 292 284 277 268 248 226 214 209 209 209 207 210 205 197 196 191 189 200 208 203 196 210 215 231 243 231 272 298 301 303 303 302 304 310
303 304 301 299 301 303 301 301 297 289 282 281 270 248 229 216 210 211 219 225 220 223 218 207 193 199 199 198 204 211 223 237 249 248 225 272 288 296 304 309 312 311 312